ONEWEB-0031 (45431 NORAD) Tracking and Keplerian Element Data

This shows tracking and keplerian element data for the satellite.

Feedback or suggestion? Click here.




ElementValue
Catalog45431
NameONEWEB-0031
Epoch Orbit3221
Epoch Day298.25001157
Epoch Year2020
RAAN71.6165
Inclination87.788
Eccentricity0.0021719
Argument of Perigee245.3537
Mean Anonmoly15.2239
Mean Motion13.97374771
Decay Rate-0.00491269
L11 45431U 20020H 20298.25001157 -.00491269 00000-0 -36639+0 0 9992
L22 45431 87.7880 71.6165 0021719 245.3537 15.2239 13.97374771 32211

Live tracking and technical data element details for ONEWEB-0031 (NORAD 45431). ONEWEB-0031 can be tracked NOW for your location showing map with azimuth and elevation plus other details from your city location.

Track the satellite on the map from your city or location and see movement details for azimuth, elevation, latitude, longitude, range, height, and movement on the map or in text.







IsCatalogInMostPopularTable: catalog: 45431, numindb: 51
Update: records affected: 1



GetName: 45431 ONEWEB-0031

Hit Count: updated at: Sun, 25 Oct 2020 00:05:46 GMT